User: anonymous   Login
Location: Clatteringshaws Loch
(55.0508°N, 4.2860°W)
Time: 19:27:20
(UTC+00:00)
Language:

Sapphire - Orbit

View from above orbital plane
View from above orbital plane
View from above satellite
View from above satellite

Ground track
Ground track

The orbit data is extracted from the following two-line orbital elements,

1 26932U 01043D   14331.18776145  .00000252  00000-0  12925-3 0  7686
2 26932 067.0570 339.2281 0008721 281.7657 078.2466 14.30065474686952
Epoch (UTC): 27 November 2014 04:30:22
Eccentricity: 0.0008721
inclination: 67.0570°
perigee height: 785 km
apogee height: 798 km
right ascension of ascending node: 339.2281°
argument of perigee: 281.7657°
revolutions per day: 14.30065474
mean anomaly at epoch: 78.2466°
orbit number at epoch: 68695

The dashed part of the orbit path shows where the satellite is in the earth's shadow,  

DLR